Wind_Speed
3 3 4 4 4 4 5 5 5 5 5 6 7 8 8 8 9 9 10 11 11 11 11 11 11 12 12 12 13 13 13 14 13 14 15 15 15 15 15 15 16 16 16
3 3 3 3 4 4 4 4 4 5 6 5 6 7 7 8 9 10 10 10 10 10 10 10 10 11 12 12 13 13 14 14 14 14 15 16 16 15 16 16 16 16 17
2 2 2 3 3 3 3 3 3 4 5 5 6 7 7 8 8 8 9 9 10 10 10 9 10 11 11 12 13 13 13 14 15 15 15 16 16 16 16 16 16 17 17
2 2 2 2 2 2 3 3 3 3 4 4 5 5 6 7 6 7 8 9 9 9 9 10 10 11 11 12 12 12 13 14 15 15 15 16 16 16 16 17 18 18 18
2 3 2 2 1 2 2 2 3 3 3 3 3 4 5 4 4 6 7 8 9 9 10 10 11 11 11 11 11 12 13 13 13 14 14 15 15 15 16 17 19 19 18
2 3 1 1 2 1 1 2 2 3 3 2 2 3 4 3 4 5 6 7 8 8 9 10 10 10 10 10 11 11 11 12 12 12 12 14 14 15 16 18 18 18 19
2 2 1 1 1 1 1 2 2 3 3 2 3 3 2 3 3 3 5 5 6 7 8 8 9 9 9 9 9 9 10 10 11 11 12 13 15 16 17 17 17 18 18
3 2 2 2 1 1 2 1 2 3 3 3 2 3 2 3 4 4 4 5 5 6 6 6 7 7 7 8 9 9 10 11 11 11 12 13 14 16 17 17 18 18 18
4 3 3 2 2 2 2 3 3 3 3 3 3 3 3 3 4 4 4 5 5 5 5 6 6 6 7 8 9 10 11 11 11 12 13 14 14 16 17 17 18 19 19
4 3 3 3 3 3 3 3 3 3 3 3 3 4 4 4 4 5 4 5 5 5 6 6 6 7 8 9 10 11 12 12 12 13 14 15 15 16 17 18 19 19 19
4 4 4 4 4 3 3 3 4 4 4 3 3 4 4 5 5 5 5 6 6 6 7 7 7 8 9 10 11 11 12 13 13 14 15 16 16 17 18 17 18 19 20
5 4 4 4 4 4 4 4 4 4 4 4 4 4 5 5 5 6 6 6 6 7 7 8 9 9 10 10 11 12 13 14 14 15 16 16 17 17 18 18 18 19 20
4 5 4 4 4 5 4 5 5 5 5 5 5 5 5 5 5 6 6 7 8 8 9 9 10 10 10 11 12 12 13 14 15 15 16 16 17 18 19 18 18 19 20
5 5 5 4 5 5 5 5 5 5 5 5 5 5 5 6 6 7 7 8 8 9 9 10 10 11 12 12 13 13 14 15 15 16 17 17 18 18 18 19 19 20 21
5 5 5 5 5 5 5 5 5 5 6 6 5 6 6 7 7 7 8 9 9 10 10 11 11 12 13 13 14 14 14 15 16 17 18 18 18 19 19 20 21 22 23
5 4 5 5 6 6 5 5 5 5 6 6 6 6 7 8 8 9 10 10 11 11 12 12 13 14 14 14 15 15 16 17 17 18 19 20 20 20 21 21 22 23 24
5 4 4 5 5 6 5 5 6 6 6 7 7 8 8 9 9 9 10 11 12 12 12 13 14 15 16 16 17 17 18 18 19 19 20 21 21 22 22 23 23 24 25
5 5 5 5 5 5 6 6 7 7 7 7 8 9 10 10 11 11 12 12 13 13 14 15 15 16 16 17 17 18 19 19 20 21 21 21 22 23 24 25 26 26 27
7 6 6 6 6 7 7 8 8 8 9 9 10 11 11 12 13 13 14 15 15 15 16 16 17 17 17 18 18 18 19 20 21 22 22 23 24 25 25 26 27 28 28
8 7 8 8 8 8 9 10 9 10 10 10 11 12 13 14 15 15 16 16 17 17 17 17 18 18 19 20 20 21 22 23 24 24 24 25 25 26 26 27 28 28 30
8 9 9 10 10 10 10 11 11 11 12 12 13 13 14 15 15 16 16 17 17 17 17 18 18 19 20 21 22 23 24 25 26 26 26 26 26 27 27 28 29 29 30
10 11 12 12 11 12 12 12 13 13 14 14 14 14 15 15 16 16 17 17 18 18 18 18 19 20 21 21 23 24 25 25 26 27 27 27 28 29 29 29 29 30 31
12 13 14 14 14 14 14 15 15 15 15 15 15 16 16 16 17 17 18 18 18 18 19 19 20 21 22 23 24 25 25 26 27 27 28 28 29 30 31 31 32 32 33
13 13 14 15 15 16 16 16 16 16 16 16 15 16 17 17 18 18 18 18 18 19 20 21 22 22 23 24 25 26 27 28 28 29 29 30 31 32 33 33 34 34 35
14 15 15 15 16 16 16 17 17 16 16 16 16 17 17 18 18 18 18 19 19 20 21 22 23 24 25 26 27 28 28 29 30 31 31 31 32 32 33 34 35 36 37
16 16 16 16 16 16 16 17 17 16 16 17 17 18 18 18 19 19 19 20 20 21 22 23 25 26 27 27 28 29 30 31 31 31 32 33 33 33 33 34 35 37 37
Wind_Direction
250 238 237 230 233 245 249 245 248 252 255 254 256 255 252 248 245 242 240 241 245 244 244 245 250 252 251 251 251 256 260 260 260 259 260 262 265 264 263 263 262 263 263
250 241 235 237 246 259 257 261 264 264 259 258 260 256 252 250 245 240 241 243 250 247 244 246 253 256 254 254 253 257 261 261 262 264 264 263 264 265 264 263 264 264 265
247 256 259 249 254 263 270 269 263 273 265 262 259 254 249 243 237 239 242 244 247 248 248 251 255 257 259 258 258 259 261 262 262 264 265 264 263 264 265 266 265 264 266
250 250 258 256 250 256 263 269 266 279 278 273 265 249 245 238 234 238 242 245 248 249 250 252 256 258 261 260 262 261 263 264 264 265 264 264 263 263 264 266 265 264 266
262 262 261 259 278 270 264 274 277 280 293 288 263 248 250 250 244 242 244 249 253 252 252 254 257 259 262 260 262 262 262 265 266 266 265 264 264 264 264 265 266 264 263
264 267 264 251 256 287 286 289 293 296 298 289 260 256 247 239 250 252 252 255 256 257 256 257 260 262 264 260 262 263 266 268 268 266 266 268 267 268 267 267 266 264 264
265 265 286 285 280 298 324 311 321 320 318 297 274 266 247 250 257 261 260 260 259 258 257 260 262 262 260 264 267 273 274 273 272 268 271 270 269 269 268 268 267 266 264
255 264 280 274 278 291 319 311 307 315 323 321 294 272 266 262 260 262 259 255 260 256 263 270 266 264 266 266 271 275 277 280 274 273 278 274 273 273 272 270 267 266 262
251 261 269 267 266 281 301 311 302 309 307 311 310 293 291 293 273 274 269 261 260 260 270 267 266 268 272 274 275 276 279 282 280 281 281 277 276 276 275 272 270 269 268
246 254 258 262 270 271 284 299 310 305 305 304 299 295 294 298 299 299 293 283 277 275 277 273 275 277 279 282 282 282 283 283 281 282 285 283 280 280 280 277 272 272 269
244 252 255 259 266 270 280 289 302 303 294 290 289 289 292 292 295 297 294 288 286 283 282 285 285 284 285 286 286 285 285 286 285 283 284 286 284 282 281 279 275 272 270
246 249 253 256 261 268 279 288 293 294 292 288 285 286 294 294 294 296 298 294 290 287 287 288 288 287 288 288 287 287 287 288 289 286 284 285 283 282 280 278 277 276 273
244 241 248 255 260 265 275 287 292 294 291 290 287 284 286 289 292 295 297 296 293 289 287 287 285 285 287 289 291 291 289 288 289 290 288 285 285 283 282 282 280 279 277
249 245 244 249 259 268 275 282 288 290 291 294 289 286 288 291 293 295 297 296 292 289 288 289 289 288 288 290 292 293 292 291 291 291 291 288 286 285 283 285 286 284 282
253 248 240 247 256 270 282 287 289 289 288 287 287 289 291 295 297 299 298 297 298 298 293 290 289 289 290 293 294 295 295 296 296 295 294 293 290 287 287 286 285 284 283
248 246 253 257 261 270 276 281 288 292 291 286 285 288 292 295 298 296 295 297 298 297 297 294 293 292 292 294 294 296 296 296 296 297 296 294 292 289 287 287 286 285 284
244 249 265 268 266 268 273 279 288 294 294 290 287 289 291 294 296 296 296 297 299 299 298 297 295 294 293 294 294 294 295 296 296 297 297 295 293 292 290 288 287 286 286
248 251 262 268 268 275 280 282 287 291 294 293 292 293 293 294 296 296 296 297 298 298 298 297 297 296 295 295 296 295 296 297 299 299 298 297 295 293 293 292 289 289 288
253 256 259 266 269 277 283 285 284 285 288 288 290 291 293 294 294 295 295 295 295 295 295 295 295 297 297 297 297 299 300 301 300 300 299 298 296 295 295 295 294 292 292
259 258 261 268 274 277 279 282 283 286 289 289 290 292 292 293 294 295 295 295 295 295 294 295 295 296 296 297 297 298 299 299 300 299 297 297 297 297 297 296 296 294 293
262 263 266 272 275 279 282 283 285 286 288 289 290 293 295 294 295 296 296 296 296 296 297 297 297 297 297 298 298 299 299 300 301 300 299 298 298 298 298 297 297 296 295
265 265 267 271 274 277 280 282 284 285 285 287 288 290 292 294 295 297 298 298 298 298 299 300 300 300 300 300 302 302 302 302 303 302 300 300 299 299 299 299 298 297 297
267 267 269 271 272 274 277 281 283 285 287 287 286 289 292 295 296 297 298 299 299 298 299 300 301 301 302 302 303 304 304 304 304 303 301 300 300 299 299 298 297 297 297
270 272 272 272 273 275 277 280 281 284 284 285 287 290 293 295 297 298 299 299 298 299 299 300 301 302 302 302 303 303 304 304 304 304 302 301 300 299 298 298 297 297 297
271 273 274 275 275 276 278 281 282 283 282 282 286 291 294 294 295 296 297 299 299 299 299 300 301 302 302 302 303 303 304 304 304 304 303 302 302 301 300 299 298 298 298
274 276 276 276 277 276 277 280 280 280 281 282 286 289 292 294 295 296 297 298 299 300 301 301 301 301 302 302 303 303 304 304 304 304 303 303 303 302 302 301 300 300 299
Height
5870 5870 5870 5870 5869 5869 5868 5868 5868 5868 5868 5867 5867 5867 5867 5867 5867 5868 5868 5868 5868 5868 5869 5869 5870 5870 5870 5871 5871 5871 5872 5872 5872 5872 5872 5872 5872 5872 5872 5872 5872 5872 5872
5869 5869 5869 5869 5869 5868 5868 5867 5867 5867 5866 5866 5866 5865 5865 5865 5865 5866 5866 5866 5866 5866 5867 5867 5868 5868 5868 5868 5868 5869 5869 5869 5869 5869 5869 5869 5869 5869 5869 5869 5869 5869 5869
5869 5869 5869 5868 5868 5867 5867 5866 5866 5865 5865 5864 5864 5864 5863 5863 5864 5864 5864 5864 5865 5865 5865 5866 5866 5866 5866 5866 5866 5866 5866 5866 5866 5866 5866 5866 5866 5866 5866 5866 5866 5866 5866
5869 5869 5868 5868 5867 5867 5866 5866 5865 5865 5864 5863 5863 5862 5862 5862 5862 5862 5863 5863 5863 5863 5864 5864 5864 5864 5864 5864 5863 5863 5863 5863 5863 5863 5863 5863 5863 5863 5863 5862 5862 5862 5862
5869 5868 5868 5867 5867 5866 5866 5865 5864 5864 5863 5862 5862 5862 5861 5861 5861 5861 5861 5861 5861 5862 5862 5862 5862 5862 5862 5861 5861 5861 5861 5860 5860 5860 5859 5859 5859 5859 5859 5859 5858 5858 5858
5868 5868 5867 5867 5866 5866 5865 5865 5864 5863 5862 5862 5861 5861 5861 5861 5860 5860 5860 5860 5860 5860 5860 5860 5860 5860 5859 5859 5859 5859 5858 5857 5857 5857 5856 5856 5855 5855 5855 5854 5854 5854 5854
5867 5867 5867 5866 5866 5866 5865 5864 5864 5863 5862 5861 5861 5861 5860 5860 5860 5859 5859 5859 5859 5858 5858 5858 5858 5858 5857 5857 5857 5856 5855 5855 5854 5854 5853 5853 5852 5852 5851 5850 5850 5850 5850
5867 5866 5866 5866 5865 5865 5865 5864 5863 5863 5862 5861 5861 5860 5860 5860 5859 5858 5858 5858 5857 5857 5856 5856 5856 5855 5855 5855 5854 5854 5853 5852 5851 5851 5850 5849 5849 5848 5847 5846 5846 5845 5845
5866 5865 5865 5865 5865 5865 5864 5864 5863 5862 5862 5861 5860 5860 5859 5858 5858 5857 5857 5856 5856 5855 5855 5854 5854 5853 5853 5853 5852 5851 5851 5850 5849 5848 5847 5846 5845 5844 5843 5842 5841 5841 5841
5865 5865 5864 5864 5864 5864 5863 5863 5862 5862 5861 5861 5860 5859 5859 5858 5857 5857 5856 5855 5855 5854 5853 5853 5852 5852 5851 5850 5850 5849 5848 5847 5846 5845 5844 5843 5841 5840 5838 5837 5836 5836 5836
5863 5863 5863 5863 5863 5863 5863 5862 5862 5861 5861 5860 5860 5859 5858 5857 5856 5856 5855 5854 5854 5853 5852 5851 5851 5850 5849 5848 5847 5846 5845 5844 5843 5842 5841 5839 5838 5836 5834 5832 5831 5831 5831
5862 5862 5862 5862 5862 5862 5862 5862 5861 5860 5860 5859 5859 5858 5857 5857 5855 5855 5854 5853 5852 5851 5851 5850 5849 5848 5847 5846 5845 5844 5843 5841 5840 5839 5837 5836 5834 5832 5830 5828 5827 5827 5826
5861 5861 5861 5861 5861 5861 5861 5860 5860 5859 5859 5858 5857 5857 5856 5855 5854 5854 5853 5852 5851 5850 5849 5848 5847 5846 5845 5844 5843 5841 5840 5838 5837 5835 5834 5832 5831 5829 5827 5825 5823 5822 5821
5860 5860 5860 5860 5860 5860 5860 5859 5858 5858 5857 5857 5856 5856 5855 5854 5853 5852 5852 5851 5849 5848 5847 5846 5845 5844 5842 5841 5840 5838 5837 5835 5833 5832 5830 5828 5827 5825 5823 5821 5820 5818 5817
5859 5859 5859 5859 5859 5858 5858 5858 5857 5857 5856 5855 5855 5854 5853 5853 5852 5851 5850 5849 5848 5846 5845 5844 5842 5841 5840 5838 5837 5835 5834 5832 5830 5828 5826 5824 5823 5821 5819 5817 5815 5814 5812
5857 5857 5858 5857 5857 5857 5857 5856 5856 5855 5855 5854 5853 5853 5852 5851 5850 5849 5848 5846 5845 5844 5842 5841 5840 5838 5837 5835 5833 5832 5830 5828 5826 5824 5822 5820 5818 5816 5814 5812 5810 5808 5806
5856 5856 5856 5856 5856 5855 5855 5855 5854 5854 5853 5852 5851 5851 5850 5849 5848 5847 5845 5844 5843 5841 5840 5838 5836 5835 5833 5832 5830 5828 5826 5824 5822 5820 5817 5815 5813 5810 5808 5806 5804 5802 5800
5854 5854 5855 5854 5854 5854 5853 5853 5852 5852 5851 5850 5849 5848 5847 5846 5845 5844 5843 5841 5840 5838 5837 5835 5833 5831 5829 5828 5826 5824 5822 5819 5817 5815 5812 5810 5807 5805 5803 5800 5798 5795 5793
5852 5852 5853 5853 5852 5852 5851 5851 5850 5849 5849 5848 5847 5846 5845 5844 5842 5841 5839 5838 5836 5834 5833 5831 5829 5827 5825 5823 5821 5819 5817 5815 5812 5810 5807 5804 5802 5799 5797 5794 5791 5788 5786
5850 5850 5850 5850 5850 5849 5849 5848 5848 5847 5846 5845 5844 5843 5841 5840 5839 5837 5835 5834 5832 5830 5828 5827 5825 5823 5821 5819 5817 5814 5812 5809 5806 5804 5801 5798 5796 5793 5790 5787 5784 5782 5779
5848 5848 5848 5847 5847 5847 5846 5845 5845 5844 5843 5842 5841 5839 5838 5836 5834 5833 5831 5829 5827 5826 5824 5822 5820 5818 5816 5813 5811 5808 5806 5803 5800 5797 5794 5792 5789 5786 5783 5780 5777 5774 5771
5845 5845 5845 5844 5844 5843 5843 5842 5841 5840 5839 5838 5837 5835 5834 5832 5830 5829 5827 5825 5823 5821 5819 5817 5815 5812 5810 5808 5805 5802 5799 5797 5794 5791 5787 5784 5781 5778 5775 5772 5769 5766 5763
5841 5841 5841 5841 5840 5840 5839 5838 5837 5836 5835 5833 5832 5831 5829 5828 5826 5824 5822 5820 5818 5816 5815 5813 5810 5807 5805 5802 5799 5796 5793 5790 5787 5783 5780 5777 5774 5770 5767 5764 5760 5757 5754
5838 5837 5837 5836 5836 5835 5834 5833 5832 5831 5830 5829 5827 5826 5825 5823 5821 5820 5818 5816 5813 5811 5809 5807 5805 5802 5799 5796 5793 5790 5786 5783 5780 5776 5773 5770 5766 5762 5758 5755 5752 5748 5744
5833 5833 5832 5832 5831 5830 5829 5828 5827 5826 5825 5824 5823 5821 5820 5818 5817 5815 5813 5811 5808 5806 5804 5801 5799 5796 5792 5789 5786 5783 5779 5776 5773 5769 5765 5761 5758 5754 5750 5746 5742 5738 5734
5829 5828 5827 5827 5826 5825 5824 5823 5822 5821 5820 5819 5818 5816 5815 5813 5811 5809 5807 5805 5803 5801 5798 5795 5792 5789 5786 5782 5779 5776 5772 5768 5765 5761 5757 5753 5749 5745 5741 5737 5732 5728 5724